Flag for Angola Weather past 2 weeks in Luanda, Angola

Now
79 °F

Passing clouds.


Feels Like: 82 °F
Forecast: 76 / 82 °F
Wind: 7 mph from South

Location: Pointe Airport-Noire

Current Time: Dec 22, 2014 at 2:23:22 AM

Latest Report: Dec 22, 2014 at 1:00 AM


Visibility: 5 mi

Pressure: 29.89 "Hg

Humidity: 84%

Dew point: 73 °F

Location of LuandaLocation

Historic Weather in Luanda — Graph

°F

Luanda temperature yesterday

Maximum temperature yesterday: 82 °F (at 2:00 PM)
Minimum temperature yesterday: 79 °F (at 12:00 AM)
Average temperature yesterday: 80 °F

Past Weeks' High & Low Weather Summary

 TemperatureHumidityPressure
High88 °F (Dec 13, 11:00 AM)100% (Dec 14, 6:00 AM)29.95 "Hg (Dec 14, 6:00 AM)
Low73 °F (Dec 15, 2:00 PM)16% (Dec 17, 12:00 PM)29.74 "Hg (Dec 10, 4:00 PM)
Average81 °F83%29.85 "Hg
* Reported Dec 7 1:00 AM — Dec 22 1:00 AM, Luanda, Weather by CustomWeather, © 2014

Note: Actual official high and low records may vary slightly from our data, if they occured in-between our weather recording intervals... More about our weather records

Advertising

Luanda weather history for previous 24 hours

 ConditionsComfort  
Time TempWeatherWind HumidityBarometerVisibility
1:00 AM
Dec 22
79 °FPassing clouds.7 mph84%29.89 "Hg5 mi
12:00 AM79 °FPassing clouds.5 mph89%29.92 "Hg5 mi
11:00 PM
Dec 21
81 °FPassing clouds.7 mph84%29.92 "Hg5 mi
10:00 PM81 °FPassing clouds.6 mph84%29.92 "Hg5 mi
9:00 PM81 °FPassing clouds.8 mph84%29.89 "Hg5 mi
8:00 PM81 °FPassing clouds.7 mph84%29.86 "Hg5 mi
7:00 PM81 °FPassing clouds.8 mph84%29.83 "Hg5 mi
6:00 PM81 °FScattered clouds.12 mph84%29.83 "Hg5 mi
5:00 PM81 °FScattered clouds.10 mph84%29.83 "Hg5 mi
4:00 PM81 °FBroken clouds.12 mph84%29.83 "Hg5 mi
3:00 PM81 °FLight rain. Broken clouds.13 mph84%29.83 "Hg4 mi
2:00 PM82 °FBroken clouds.9 mph79%29.86 "HgN/A
1:00 PM81 °FBroken clouds.9 mph84%29.89 "HgN/A
12:00 PM81 °FBroken clouds.12 mph84%29.92 "HgN/A
11:00 AM81 °FBroken clouds.9 mph84%29.92 "Hg6 mi
10:00 AM81 °FLight rain. More clouds than sun.9 mph84%29.92 "HgN/A
9:00 AM81 °FBroken clouds.8 mph84%29.92 "HgN/A
8:00 AM81 °FBroken clouds.9 mph84%29.89 "HgN/A
7:00 AM79 °FScattered clouds.5 mph94%29.89 "Hg5 mi
6:00 AM79 °FBroken clouds.5 mph94%29.86 "Hg5 mi
5:00 AM79 °FPartly cloudy.3 mph94%29.86 "Hg5 mi
4:00 AM79 °FPassing clouds.2 mph94%29.86 "Hg5 mi
3:00 AM81 °FPassing clouds.3 mph84%29.86 "Hg5 mi
2:00 AM81 °FPassing clouds.6 mph84%29.86 "Hg5 mi
Weather by CustomWeather, © 2014

See weather overviewHow to use our weather pages